Weather History for Whiteman AFB, MO

Change the Weather History Date:

Monday, March 5, 2012

  Actual Average Record
Temperature  
Mean Temperature 39 °F -  
Max Temperature 56 °F 46 °F 73 °F (2009)
Min Temperature 22 °F 27 °F 15 °F (2003)
Degree Days  
Heating Degree Days 26    
Moisture  
Dew Point 25 °F    
Average Humidity 55    
Maximum Humidity 96    
Minimum Humidity 27    
Precipitation  
Precipitation 0.00 in - - ()
Sea Level Pressure  
Sea Level Pressure 30.24 in    
Wind  
Wind Speed 9 mph (SSE)    
Max Wind Speed 18 mph    
Max Gust Speed -    
Visibility 10 miles    
Events      
Averages and records for this station are not official NWS values.
T = Trace of Precipitation, MM = Missing Value Source: NWS Daily Summary

Daily Weather History Graph

Daily Weather History Graph

Search for Another Location

Airport:

Trip Planner

Search our weather history database for the weather conditions in past years. The results will help you decide how hot, cold, wet, or windy it might be!

Date:

Astronomy

Mar. 05, 2012 Rise Set
Actual Time 6:39 AM CST 6:11 PM CST
Civil Twilight 6:13 AM CST 6:38 PM CST
Nautical Twilight 5:42 AM CST 7:09 PM CST
Astronomical Twilight 5:11 AM CST 7:40 PM CST
Moon 3:32 PM CST (3/5) 4:38 AM CST (3/5)
Length of Visible Light 12h 25m
Length of Day
11h 31m
Waxing Gibbous, 91% of the Moon is Illuminated
Mar 5
Waxing Gibbous
Mar 8
Full
Mar 14
Last Quarter
Mar 22
New
Mar 30
First Quarter

Hourly Weather History & Observations

Time (CST) Temp. Windchill Dew Point Humidity Pressure Visibility Wind Dir Wind Speed Gust Speed Precip Events Conditions
12:55 AM 35.2 °F 28.8 °F 25.0 °F 66% 30.22 in 10.0 mi NNW 8.1 mph - N/A   Clear
1:55 AM 31.6 °F 25.1 °F 25.3 °F 78% 30.25 in 10.0 mi North 6.9 mph - N/A   Clear
2:55 AM 30.2 °F 23.4 °F 24.3 °F 79% 30.27 in 10.0 mi North 6.9 mph - N/A   Clear
3:55 AM 28.9 °F 25.2 °F 23.4 °F 80% 30.28 in 10.0 mi NW 3.5 mph - N/A   Clear
4:55 AM 25.9 °F - 23.2 °F 90% 30.30 in 10.0 mi Calm Calm - N/A   Clear
5:55 AM 24.8 °F 20.5 °F 23.2 °F 94% 30.33 in 10.0 mi South 3.5 mph - N/A   Clear
6:55 AM 22.6 °F 14.3 °F 21.7 °F 96% 30.35 in 10.0 mi South 6.9 mph - N/A   Clear
7:55 AM 28.9 °F 25.2 °F 26.6 °F 91% 30.36 in 10.0 mi SE 3.5 mph - N/A   Clear
8:55 AM 34.0 °F 29.8 °F 26.6 °F 74% 30.39 in 10.0 mi SSE 4.6 mph - N/A   Clear
9:55 AM 38.1 °F 32.9 °F 25.2 °F 60% 30.38 in 10.0 mi ESE 6.9 mph - N/A   Clear
10:55 AM 42.1 °F 36.6 °F 25.9 °F 53% 30.38 in 10.0 mi SSE 9.2 mph - N/A   Clear
11:55 AM 45.9 °F 41.2 °F 25.3 °F 45% 30.35 in 10.0 mi South 9.2 mph - N/A   Clear
12:55 PM 49.1 °F - 24.6 °F 38% 30.31 in 10.0 mi SSE 10.4 mph - N/A   Clear
1:55 PM 52.3 °F - 22.8 °F 32% 30.27 in 10.0 mi South 16.1 mph - N/A   Clear
2:55 PM 54.3 °F - 22.1 °F 29% 30.24 in 10.0 mi South 12.7 mph - N/A   Clear
3:55 PM 56.5 °F - 23.2 °F 28% 30.20 in 10.0 mi South 17.3 mph - N/A   Clear
4:55 PM 56.8 °F - 22.6 °F 27% 30.17 in 10.0 mi SSE 16.1 mph - N/A   Clear
5:55 PM 55.2 °F - 23.4 °F 29% 30.14 in 10.0 mi SSE 10.4 mph - N/A   Clear
6:55 PM 51.6 °F - 25.2 °F 36% 30.12 in 10.0 mi SSE 9.2 mph - N/A   Clear
7:55 PM 50.0 °F - 26.2 °F 40% 30.11 in 10.0 mi South 13.8 mph - N/A   Clear
8:55 PM 50.4 °F - 25.5 °F 38% 30.09 in 10.0 mi South 16.1 mph - N/A   Clear
9:55 PM 49.6 °F - 24.6 °F 38% 30.08 in 10.0 mi South 16.1 mph - N/A   Clear
10:55 PM 50.4 °F - 25.5 °F 38% 30.06 in 10.0 mi South 17.3 mph - N/A   Clear
11:55 PM 50.2 °F - 27.0 °F 41% 30.05 in 10.0 mi South 18.4 mph - N/A   Clear